St. Inigoes, MD

7:21 AM EDT on April 27, 2017 (GMT -0400)
Webster Naval Outlying Field

Weather History for KNUI - October, 2013

Change the Weather History Date:

Thursday, October 10, 2013

  Actual Average (KNHK) Record (KNHK)
Temperature  
Mean Temperature 60 °F -  
Max Temperature 63 °F 66 °F 88 °F (1997)
Min Temperature 57 °F 48 °F 38 °F (1979)
Degree Days  
Heating Degree Days 5    
Growing Degree Days 10 (Base 50)    
Moisture  
Dew Point 58 °F    
Average Humidity 91    
Maximum Humidity 94    
Minimum Humidity 88    
Precipitation  
Precipitation 1.41 in - - ()
Sea Level Pressure  
Sea Level Pressure 29.99 in    
Wind  
Wind Speed 10 mph (NNE)    
Max Wind Speed 15 mph    
Max Gust Speed 25 mph    
Visibility 4 miles    
Events Rain    
Averages and records for this station are not official NWS values.
T = Trace of Precipitation, MM = Missing Value Source: NWS Daily Summary

Daily Weather History Graph

Daily Weather History Graph

Search for Another Location

Airport or City:

Trip Planner

Search our weather history database for the weather conditions in past years. The results will help you decide how hot, cold, wet, or windy it might be!

Date:

Astronomy

Oct. 10, 2013 Rise Set
Actual Time 7:09 AM EDT 6:34 PM EDT
Civil Twilight 6:43 AM EDT 7:01 PM EDT
Nautical Twilight 6:12 AM EDT 7:31 PM EDT
Astronomical Twilight 5:42 AM EDT 8:02 PM EDT
Moon 12:56 PM EDT (10/10) 11:13 PM EDT (10/10)
Length of Visible Light 12h 17m
Length of Day
11h 24m
Waxing Crescent, 35% of the Moon is Illuminated
Oct 10
Waxing Crescent
Oct 11
First Quarter
Oct 18
Full
Oct 26
Last Quarter
Nov 3
New

Hourly Weather History & Observations

Time (EDT) Temp. Dew Point Humidity Pressure Visibility Wind Dir Wind Speed Gust Speed Precip Events Conditions
12:53 AM 57.9 °F 55.0 °F 90% 30.10 in 9.0 mi NNE 11.5 mph 19.6 mph 0.06 in Rain Light Rain
1:53 AM 57.9 °F 55.0 °F 90% 30.08 in 10.0 mi NNE 15.0 mph 25.3 mph 0.03 in Rain Light Rain
2:43 AM 57.2 °F 55.4 °F 94% 30.06 in 4.0 mi NNE 10.4 mph 20.7 mph 0.06 in Rain Rain
2:53 AM 57.9 °F 55.9 °F 93% 30.06 in 2.5 mi North 11.5 mph 17.3 mph 0.12 in Rain Heavy Rain
3:05 AM 57.2 °F 55.4 °F 94% 30.06 in 1.8 mi NNE 10.4 mph 17.3 mph 0.12 in Rain Heavy Rain
3:24 AM 57.2 °F 55.4 °F 94% 30.06 in 3.0 mi NNE 11.5 mph 19.6 mph 0.31 in Rain Rain
3:31 AM 59.0 °F 55.4 °F 88% 30.05 in 10.0 mi North 9.2 mph 17.3 mph 0.31 in Rain Light Rain
3:53 AM 59.0 °F 55.9 °F 90% 30.05 in 5.0 mi NNE 11.5 mph 23.0 mph 0.32 in Rain Light Rain
4:35 AM 57.2 °F 55.4 °F 94% 30.05 in 4.0 mi NNE 10.4 mph 17.3 mph 0.07 in Rain Light Rain
4:53 AM 59.0 °F 55.9 °F 90% 30.05 in 10.0 mi NNE 8.1 mph 20.7 mph 0.08 in Rain Light Rain
5:33 AM 59.0 °F 55.4 °F 88% 30.04 in 6.0 mi North 8.1 mph - 0.02 in Rain Light Rain
5:53 AM 59.0 °F 55.9 °F 90% 30.04 in 10.0 mi Variable 6.9 mph - 0.03 in Rain Light Rain
6:53 AM 59.0 °F 57.0 °F 93% 30.05 in 3.0 mi NNE 8.1 mph 18.4 mph 0.06 in Rain Light Rain
7:40 AM 60.8 °F 57.2 °F 88% 30.03 in 6.0 mi NNE 10.4 mph 16.1 mph 0.03 in Rain Light Rain
7:53 AM 60.1 °F 57.0 °F 90% 30.03 in 9.0 mi NNE 9.2 mph 18.4 mph 0.03 in   Overcast
8:02 AM 60.8 °F 57.2 °F 88% 30.03 in 5.0 mi NNE 9.2 mph 16.1 mph N/A   Overcast
8:53 AM 60.1 °F 57.9 °F 93% 30.04 in 3.0 mi NNE 10.4 mph 19.6 mph 0.00 in   Overcast
9:08 AM 60.8 °F 57.2 °F 88% 30.03 in 2.5 mi NNE 12.7 mph 19.6 mph 0.01 in   Overcast
9:40 AM 60.8 °F 57.2 °F 88% 30.02 in 4.0 mi Variable 6.9 mph 20.7 mph 0.01 in   Overcast
9:53 AM 60.1 °F 57.0 °F 90% 30.02 in 4.0 mi North 11.5 mph 19.6 mph 0.01 in   Overcast
10:41 AM 60.8 °F 57.2 °F 88% 30.02 in 1.8 mi NNE 9.2 mph 17.3 mph 0.00 in Rain Light Rain
10:53 AM 60.1 °F 57.9 °F 93% 30.02 in 1.5 mi NNE 9.2 mph 18.4 mph 0.01 in Rain Light Rain
11:35 AM 60.8 °F 57.2 °F 88% 30.01 in 2.5 mi NNE 10.4 mph 19.6 mph 0.02 in Rain Light Rain
11:42 AM 60.8 °F 57.2 °F 88% 30.01 in 3.0 mi NNE 11.5 mph 21.9 mph 0.02 in Rain Light Rain
11:53 AM 60.1 °F 57.9 °F 93% 30.00 in 3.0 mi North 10.4 mph 20.7 mph 0.02 in Rain Light Rain
12:17 PM 60.8 °F 57.2 °F 88% 29.99 in 3.0 mi NNE 9.2 mph 19.6 mph 0.02 in Rain Light Rain
12:53 PM 61.0 °F 57.9 °F 90% 29.99 in 2.0 mi NNE 8.1 mph 23.0 mph 0.03 in Rain Light Rain
1:04 PM 60.8 °F 57.2 °F 88% 29.99 in 1.2 mi NNE 11.5 mph 20.7 mph 0.03 in Rain Rain
1:15 PM 60.8 °F 57.2 °F 88% 29.98 in 3.0 mi NNE 9.2 mph 19.6 mph 0.04 in Rain Light Rain
1:53 PM 62.1 °F 59.0 °F 90% 29.97 in 10.0 mi NNE 9.2 mph 18.4 mph 0.04 in   Overcast
2:53 PM 62.1 °F 59.0 °F 90% 29.95 in 5.0 mi NNE 8.1 mph 25.3 mph 0.00 in   Overcast
3:53 PM 62.1 °F 60.1 °F 93% 29.95 in 4.0 mi North 6.9 mph - 0.00 in Rain Light Rain
4:53 PM 62.1 °F 60.1 °F 93% 29.94 in 3.0 mi North 9.2 mph 18.4 mph 0.00 in   Overcast
5:02 PM 62.6 °F 60.8 °F 94% 29.94 in 2.0 mi North 8.1 mph 18.4 mph N/A   Overcast
5:25 PM 62.6 °F 60.8 °F 94% 29.93 in 3.0 mi NNE 9.2 mph 20.7 mph N/A   Overcast
5:53 PM 62.1 °F 60.1 °F 93% 29.93 in 3.0 mi NNE 10.4 mph 19.6 mph N/A   Overcast
6:23 PM 62.6 °F 60.8 °F 94% 29.93 in 2.0 mi North 9.2 mph 19.6 mph 0.00 in Rain Light Rain
6:46 PM 62.6 °F 60.8 °F 94% 29.94 in 4.0 mi North 9.2 mph 17.3 mph 0.01 in Rain Light Rain
6:53 PM 62.1 °F 60.1 °F 93% 29.94 in 4.0 mi North 8.1 mph - 0.01 in   Overcast
7:16 PM 62.6 °F 60.8 °F 94% 29.94 in 2.5 mi Variable 6.9 mph - 0.00 in Rain Light Rain
7:44 PM 62.6 °F 59.0 °F 88% 29.94 in 3.0 mi North 8.1 mph - 0.01 in Rain Light Rain
7:53 PM 62.1 °F 60.1 °F 93% 29.94 in 3.0 mi North 9.2 mph - 0.01 in Rain Light Rain
8:53 PM 62.1 °F 60.1 °F 93% 29.92 in 6.0 mi Variable 5.8 mph - 0.00 in   Overcast
9:53 PM 62.1 °F 60.1 °F 93% 29.93 in 6.0 mi Variable 5.8 mph - N/A   Overcast
10:53 PM 63.0 °F 60.1 °F 90% 29.92 in 5.0 mi Variable 5.8 mph - 0.03 in Rain Rain
11:29 PM 62.6 °F 60.8 °F 94% 29.90 in 2.5 mi Variable 4.6 mph - 0.05 in Rain Light Rain
11:48 PM 62.6 °F 60.8 °F 94% 29.90 in 0.8 mi North 8.1 mph - 0.45 in Rain Heavy Rain
11:53 PM 62.1 °F 60.1 °F 93% 29.89 in 1.0 mi NNW 8.1 mph - 0.52 in Rain Heavy Rain